Year,Month,Day,Hour,Minute,Value (Times are PST for temperature in C)
2017,09,21,00,00,8.90
2017,09,21,00,01,8.90
2017,09,21,00,02,8.90
2017,09,21,00,03,8.90
2017,09,21,00,04,8.90
2017,09,21,00,05,8.90
2017,09,21,00,06,8.90
2017,09,21,00,07,8.80
2017,09,21,00,08,8.80
2017,09,21,00,09,8.80
2017,09,21,00,10,8.80
2017,09,21,00,11,8.70
2017,09,21,00,12,8.70
2017,09,21,00,13,8.70
2017,09,21,00,14,8.70
2017,09,21,00,15,8.70
2017,09,21,00,16,8.70
2017,09,21,00,17,8.70
2017,09,21,00,18,8.70
2017,09,21,00,19,8.70
2017,09,21,00,20,8.70
2017,09,21,00,21,8.70
2017,09,21,00,22,8.70
2017,09,21,00,23,8.70
2017,09,21,00,24,8.70
2017,09,21,00,25,8.70
2017,09,21,00,26,8.70
2017,09,21,00,27,8.80
2017,09,21,00,28,8.80
2017,09,21,00,29,8.80
2017,09,21,00,30,8.80
2017,09,21,00,31,8.80
2017,09,21,00,32,8.80
2017,09,21,00,33,8.80
2017,09,21,00,34,8.80
2017,09,21,00,35,8.80
2017,09,21,00,36,8.80
2017,09,21,00,37,8.80
2017,09,21,00,38,8.80
2017,09,21,00,39,8.80
2017,09,21,00,40,8.80
2017,09,21,00,41,8.80
2017,09,21,00,42,8.70
2017,09,21,00,43,8.60
2017,09,21,00,44,8.60
2017,09,21,00,45,8.50
2017,09,21,00,46,8.50
2017,09,21,00,47,8.40
2017,09,21,00,48,8.40
2017,09,21,00,49,8.30
2017,09,21,00,50,8.30
2017,09,21,00,51,8.30
2017,09,21,00,52,8.30
2017,09,21,00,53,8.30
2017,09,21,00,54,8.30
2017,09,21,00,55,8.30
2017,09,21,00,56,8.30
2017,09,21,00,57,8.30
2017,09,21,00,58,8.30
2017,09,21,00,59,8.30
2017,09,21,01,00,8.30
2017,09,21,01,01,8.30
2017,09,21,01,02,8.30
2017,09,21,01,03,8.30
2017,09,21,01,04,8.20
2017,09,21,01,05,8.20
2017,09,21,01,06,8.20
2017,09,21,01,07,8.20
2017,09,21,01,08,8.20
2017,09,21,01,09,8.20
2017,09,21,01,10,8.20
2017,09,21,01,11,8.20
2017,09,21,01,12,8.20
2017,09,21,01,13,8.20
2017,09,21,01,14,8.20
2017,09,21,01,15,8.20
2017,09,21,01,16,8.20
2017,09,21,01,17,8.20
2017,09,21,01,18,8.20
2017,09,21,01,19,8.20
2017,09,21,01,20,8.20
2017,09,21,01,21,8.20
2017,09,21,01,22,8.20
2017,09,21,01,23,8.20
2017,09,21,01,24,8.20
2017,09,21,01,25,8.20
2017,09,21,01,26,8.30
2017,09,21,01,27,8.30
2017,09,21,01,28,8.30
2017,09,21,01,29,8.30
2017,09,21,01,30,8.30
2017,09,21,01,31,8.30
2017,09,21,01,32,8.30
2017,09,21,01,33,8.30
2017,09,21,01,34,8.30
2017,09,21,01,35,8.20
2017,09,21,01,36,8.20
2017,09,21,01,37,8.20
2017,09,21,01,38,8.20
2017,09,21,01,39,8.20
2017,09,21,01,40,8.20
2017,09,21,01,41,8.20
2017,09,21,01,42,8.20
2017,09,21,01,43,8.10
2017,09,21,01,44,8.10
2017,09,21,01,45,8.10
2017,09,21,01,46,8.10
2017,09,21,01,47,8.10
2017,09,21,01,48,8.10
2017,09,21,01,49,8.10
2017,09,21,01,50,8.10
2017,09,21,01,51,8.10
2017,09,21,01,52,8.10
2017,09,21,01,53,8.10
2017,09,21,01,54,8.10
2017,09,21,01,55,8.10
2017,09,21,01,56,8.10
2017,09,21,01,57,8.10
2017,09,21,01,58,8.10
2017,09,21,01,59,8.10
2017,09,21,02,00,8.10
2017,09,21,02,01,8.10
2017,09,21,02,02,8.10
2017,09,21,02,03,8.10
2017,09,21,02,04,8.10
2017,09,21,02,05,8.10
2017,09,21,02,06,8.10
2017,09,21,02,07,8.10
2017,09,21,02,08,8.10
2017,09,21,02,09,8.10
2017,09,21,02,10,8.10
2017,09,21,02,11,8.10
2017,09,21,02,12,8.10
2017,09,21,02,13,8.10
2017,09,21,02,14,8.10
2017,09,21,02,15,8.00
2017,09,21,02,16,8.00
2017,09,21,02,17,8.00
2017,09,21,02,18,8.00
2017,09,21,02,19,8.00
2017,09,21,02,20,8.00
2017,09,21,02,21,8.00
2017,09,21,02,22,8.00
2017,09,21,02,23,8.00
2017,09,21,02,24,8.00
2017,09,21,02,25,8.00
2017,09,21,02,26,8.00
2017,09,21,02,27,8.00
2017,09,21,02,28,8.00
2017,09,21,02,29,7.90
2017,09,21,02,30,7.90
2017,09,21,02,31,7.90
2017,09,21,02,32,7.90
2017,09,21,02,33,7.90
2017,09,21,02,34,7.90
2017,09,21,02,35,7.90
2017,09,21,02,36,7.90
2017,09,21,02,37,7.90
2017,09,21,02,38,7.90
2017,09,21,02,39,7.90
2017,09,21,02,40,7.90
2017,09,21,02,41,7.90
2017,09,21,02,42,7.90
2017,09,21,02,43,7.90
2017,09,21,02,44,7.90
2017,09,21,02,45,7.90
2017,09,21,02,46,7.90
2017,09,21,02,47,7.90
2017,09,21,02,48,7.90
2017,09,21,02,49,7.90
2017,09,21,02,50,7.90
2017,09,21,02,51,7.80
2017,09,21,02,52,7.80
2017,09,21,02,53,7.80
2017,09,21,02,54,7.80
2017,09,21,02,55,7.80
2017,09,21,02,56,7.70
2017,09,21,02,57,7.70
2017,09,21,02,58,7.70
2017,09,21,02,59,7.70
2017,09,21,03,00,7.70
2017,09,21,03,01,7.60
2017,09,21,03,02,7.60
2017,09,21,03,03,7.60
2017,09,21,03,04,7.60
2017,09,21,03,05,7.50
2017,09,21,03,06,7.50
2017,09,21,03,07,7.40
2017,09,21,03,08,7.40
2017,09,21,03,09,7.40
2017,09,21,03,10,7.40
2017,09,21,03,11,7.30
2017,09,21,03,12,7.30
2017,09,21,03,13,7.30
2017,09,21,03,14,7.30
2017,09,21,03,15,7.30
2017,09,21,03,16,7.30
2017,09,21,03,17,7.30
2017,09,21,03,18,7.30
2017,09,21,03,19,7.30
2017,09,21,03,20,7.30
2017,09,21,03,21,7.30
2017,09,21,03,22,7.30
2017,09,21,03,23,7.30
2017,09,21,03,24,7.30
2017,09,21,03,25,7.30
2017,09,21,03,26,7.20
2017,09,21,03,27,7.20
2017,09,21,03,28,7.20
2017,09,21,03,29,7.20
2017,09,21,03,30,7.20
2017,09,21,03,31,7.10
2017,09,21,03,32,7.10
2017,09,21,03,33,7.10
2017,09,21,03,34,7.10
2017,09,21,03,35,7.10
2017,09,21,03,36,7.10
2017,09,21,03,37,7.10
2017,09,21,03,38,7.10
2017,09,21,03,39,7.00
2017,09,21,03,40,7.00
2017,09,21,03,41,7.00
2017,09,21,03,42,7.00
2017,09,21,03,43,7.00
2017,09,21,03,44,7.00
2017,09,21,03,45,7.00
2017,09,21,03,46,6.90
2017,09,21,03,47,6.90
2017,09,21,03,48,6.90
2017,09,21,03,49,6.80
2017,09,21,03,50,6.80
2017,09,21,03,51,6.80
2017,09,21,03,52,6.80
2017,09,21,03,53,6.80
2017,09,21,03,54,6.70
2017,09,21,03,55,6.70
2017,09,21,03,56,6.80
2017,09,21,03,57,6.90
2017,09,21,03,58,7.00
2017,09,21,03,59,7.00
2017,09,21,04,00,7.10
2017,09,21,04,01,7.10
2017,09,21,04,02,7.10
2017,09,21,04,03,7.20
2017,09,21,04,04,7.20
2017,09,21,04,05,7.10
2017,09,21,04,06,7.00
2017,09,21,04,07,7.00
2017,09,21,04,08,6.90
2017,09,21,04,09,6.80
2017,09,21,04,10,6.70
2017,09,21,04,11,6.70
2017,09,21,04,12,6.60
2017,09,21,04,13,6.60
2017,09,21,04,14,6.50
2017,09,21,04,15,6.50
2017,09,21,04,16,6.40
2017,09,21,04,17,6.40
2017,09,21,04,18,6.30
2017,09,21,04,19,6.30
2017,09,21,04,20,6.30
2017,09,21,04,21,6.30
2017,09,21,04,22,6.30
2017,09,21,04,23,6.30
2017,09,21,04,24,6.30
2017,09,21,04,25,6.30
2017,09,21,04,26,6.30
2017,09,21,04,27,6.30
2017,09,21,04,28,6.30
2017,09,21,04,29,6.30
2017,09,21,04,30,6.30
2017,09,21,04,31,6.30
2017,09,21,04,32,6.30
2017,09,21,04,33,6.30
2017,09,21,04,34,6.30
2017,09,21,04,35,6.30
2017,09,21,04,36,6.30
2017,09,21,04,37,6.30
2017,09,21,04,38,6.30
2017,09,21,04,39,6.30
2017,09,21,04,40,6.30
2017,09,21,04,41,6.30
2017,09,21,04,42,6.30
2017,09,21,04,43,6.30
2017,09,21,04,44,6.20
2017,09,21,04,45,6.20
2017,09,21,04,46,6.20
2017,09,21,04,47,6.20
2017,09,21,04,48,6.20
2017,09,21,04,49,6.20
2017,09,21,04,50,6.20
2017,09,21,04,51,6.10
2017,09,21,04,52,6.10
2017,09,21,04,53,6.10
2017,09,21,04,54,6.10
2017,09,21,04,55,6.00
2017,09,21,04,56,6.00
2017,09,21,04,57,6.10
2017,09,21,04,58,6.10
2017,09,21,04,59,6.10
2017,09,21,05,00,6.10
2017,09,21,05,01,6.10
2017,09,21,05,02,6.10
2017,09,21,05,03,6.10
2017,09,21,05,04,6.10
2017,09,21,05,05,6.10
2017,09,21,05,06,6.10
2017,09,21,05,07,6.10
2017,09,21,05,08,6.10
2017,09,21,05,09,6.10
2017,09,21,05,10,6.10
2017,09,21,05,11,6.10
2017,09,21,05,12,6.00
2017,09,21,05,13,6.00
2017,09,21,05,14,6.00
2017,09,21,05,15,6.00
2017,09,21,05,16,5.90
2017,09,21,05,17,5.90
2017,09,21,05,18,5.90
2017,09,21,05,19,5.90
2017,09,21,05,20,5.90
2017,09,21,05,21,5.90
2017,09,21,05,22,5.90
2017,09,21,05,23,5.80
2017,09,21,05,24,5.80
2017,09,21,05,25,5.80
2017,09,21,05,26,5.80
2017,09,21,05,27,5.80
2017,09,21,05,28,5.80
2017,09,21,05,29,5.80
2017,09,21,05,30,5.80
2017,09,21,05,31,5.80
2017,09,21,05,32,5.80
2017,09,21,05,33,5.80
2017,09,21,05,34,5.80
2017,09,21,05,35,5.80
2017,09,21,05,36,5.70
2017,09,21,05,37,5.60
2017,09,21,05,38,5.50
2017,09,21,05,39,5.40
2017,09,21,05,40,5.30
2017,09,21,05,41,5.30
2017,09,21,05,42,5.20
2017,09,21,05,43,5.20
2017,09,21,05,44,5.10
2017,09,21,05,45,5.10
2017,09,21,05,46,5.10
2017,09,21,05,47,5.10
2017,09,21,05,48,5.20
2017,09,21,05,49,5.20
2017,09,21,05,50,5.20
2017,09,21,05,51,5.20
2017,09,21,05,52,5.30
2017,09,21,05,53,5.30
2017,09,21,05,54,5.30
2017,09,21,05,55,5.30
2017,09,21,05,56,5.30
2017,09,21,05,57,5.30
2017,09,21,05,58,5.30
2017,09,21,05,59,5.30
2017,09,21,06,00,5.40
2017,09,21,06,01,5.40
2017,09,21,06,02,5.40
2017,09,21,06,03,5.40
2017,09,21,06,04,5.40
2017,09,21,06,05,5.40
2017,09,21,06,06,5.40
2017,09,21,06,07,5.40
2017,09,21,06,08,5.40
2017,09,21,06,09,5.40
2017,09,21,06,10,5.40
2017,09,21,06,11,5.30
2017,09,21,06,12,5.30
2017,09,21,06,13,5.20
2017,09,21,06,14,5.10
2017,09,21,06,15,5.10
2017,09,21,06,16,5.00
2017,09,21,06,17,4.90
2017,09,21,06,18,4.90
2017,09,21,06,19,4.90
2017,09,21,06,20,4.90
2017,09,21,06,21,4.90
2017,09,21,06,22,4.90
2017,09,21,06,23,4.90
2017,09,21,06,24,4.90
2017,09,21,06,25,4.90
2017,09,21,06,26,4.90
2017,09,21,06,27,4.90
2017,09,21,06,28,4.90
2017,09,21,06,29,4.90
2017,09,21,06,30,4.90
2017,09,21,06,31,4.90
2017,09,21,06,32,4.90
2017,09,21,06,33,4.80
2017,09,21,06,34,4.80
2017,09,21,06,35,4.80
2017,09,21,06,36,4.80
2017,09,21,06,37,4.80
2017,09,21,06,38,4.80
2017,09,21,06,39,4.80
2017,09,21,06,40,4.70
2017,09,21,06,41,4.70
2017,09,21,06,42,4.80
2017,09,21,06,43,4.80
2017,09,21,06,44,4.80
2017,09,21,06,45,4.80
2017,09,21,06,46,4.80
2017,09,21,06,47,4.80
2017,09,21,06,48,4.80
2017,09,21,06,49,4.80
2017,09,21,06,50,4.80
2017,09,21,06,51,4.90
2017,09,21,06,52,4.80
2017,09,21,06,53,4.80
2017,09,21,06,54,4.80
2017,09,21,06,55,4.80
2017,09,21,06,56,4.80
2017,09,21,06,57,4.70
2017,09,21,06,58,4.70
2017,09,21,06,59,4.70
2017,09,21,07,00,4.70
2017,09,21,07,01,4.70
2017,09,21,07,02,4.60
2017,09,21,07,03,4.60
2017,09,21,07,04,4.60
2017,09,21,07,05,4.60
2017,09,21,07,06,4.60
2017,09,21,07,07,4.60
2017,09,21,07,08,4.60
2017,09,21,07,09,4.60
2017,09,21,07,10,4.50
2017,09,21,07,11,4.50
2017,09,21,07,12,4.50
2017,09,21,07,13,4.40
2017,09,21,07,14,4.40
2017,09,21,07,15,4.30
2017,09,21,07,16,4.30
2017,09,21,07,17,4.30
2017,09,21,07,18,4.30
2017,09,21,07,19,4.30
2017,09,21,07,20,4.30
2017,09,21,07,21,4.30
2017,09,21,07,22,4.30
2017,09,21,07,23,4.30
2017,09,21,07,24,4.30
2017,09,21,07,25,4.40
2017,09,21,07,26,4.40
2017,09,21,07,27,4.40
2017,09,21,07,28,4.40
2017,09,21,07,29,4.40
2017,09,21,07,30,4.50
2017,09,21,07,31,4.50
2017,09,21,07,32,4.50
2017,09,21,07,33,4.50
2017,09,21,07,34,4.60
2017,09,21,07,35,4.60
2017,09,21,07,36,4.60
2017,09,21,07,37,4.60
2017,09,21,07,38,4.60
2017,09,21,07,39,4.60
2017,09,21,07,40,4.60
2017,09,21,07,41,4.60
2017,09,21,07,42,4.50
2017,09,21,07,43,4.50
2017,09,21,07,44,4.40
2017,09,21,07,45,4.40
2017,09,21,07,46,4.30
2017,09,21,07,47,4.30
2017,09,21,07,48,4.30
2017,09,21,07,49,4.20
2017,09,21,07,50,4.20
2017,09,21,07,51,4.20
2017,09,21,07,52,4.20
2017,09,21,07,53,4.20
2017,09,21,07,54,4.30
2017,09,21,07,55,4.30
2017,09,21,07,56,4.30
2017,09,21,07,57,4.30
2017,09,21,07,58,4.40
2017,09,21,07,59,4.40
2017,09,21,08,00,4.50
2017,09,21,08,01,4.50
2017,09,21,08,02,4.60
2017,09,21,08,03,4.60
2017,09,21,08,04,4.60
2017,09,21,08,05,4.60
2017,09,21,08,06,4.70
2017,09,21,08,07,4.70
2017,09,21,08,08,4.70
2017,09,21,08,09,4.70
2017,09,21,08,10,4.60
2017,09,21,08,11,4.60
2017,09,21,08,12,4.50
2017,09,21,08,13,4.50
2017,09,21,08,14,4.40
2017,09,21,08,15,4.40
2017,09,21,08,16,4.40
2017,09,21,08,17,4.40
2017,09,21,08,18,4.40
2017,09,21,08,19,4.40
2017,09,21,08,20,4.40
2017,09,21,08,21,4.50
2017,09,21,08,22,4.50
2017,09,21,08,23,4.50
2017,09,21,08,24,4.60
2017,09,21,08,25,4.60
2017,09,21,08,26,4.60
2017,09,21,08,27,4.70
2017,09,21,08,28,4.70
2017,09,21,08,29,4.70
2017,09,21,08,30,4.80
2017,09,21,08,31,4.80
2017,09,21,08,32,4.80
2017,09,21,08,33,4.90
2017,09,21,08,34,4.90
2017,09,21,08,35,4.90
2017,09,21,08,36,5.00
2017,09,21,08,37,5.00
2017,09,21,08,38,5.10
2017,09,21,08,39,5.10
2017,09,21,08,40,5.10
2017,09,21,08,41,5.10
2017,09,21,08,42,5.20
2017,09,21,08,43,5.20
2017,09,21,08,44,5.20
2017,09,21,08,45,5.30
2017,09,21,08,46,5.30
2017,09,21,08,47,5.30
2017,09,21,08,48,5.30
2017,09,21,08,49,5.30
2017,09,21,08,50,5.30
2017,09,21,08,51,5.30
2017,09,21,08,52,5.30
2017,09,21,08,53,5.30
2017,09,21,08,54,5.30
2017,09,21,08,55,5.30
2017,09,21,08,56,5.30
2017,09,21,08,57,5.30
2017,09,21,08,58,5.30
2017,09,21,08,59,5.30
2017,09,21,09,00,5.30
2017,09,21,09,01,5.30
2017,09,21,09,02,5.40
2017,09,21,09,03,5.40
2017,09,21,09,04,5.40
2017,09,21,09,05,5.50
2017,09,21,09,06,5.50
2017,09,21,09,07,5.50
2017,09,21,09,08,5.60
2017,09,21,09,09,5.60
2017,09,21,09,10,5.60
2017,09,21,09,11,5.60
2017,09,21,09,12,5.60
2017,09,21,09,13,5.70
2017,09,21,09,14,5.70
2017,09,21,09,15,5.70
2017,09,21,09,16,5.70
2017,09,21,09,17,5.70
2017,09,21,09,18,5.70
2017,09,21,09,19,5.70
2017,09,21,09,20,5.70
2017,09,21,09,21,5.70
2017,09,21,09,22,5.70
2017,09,21,09,23,5.70
2017,09,21,09,24,5.70
2017,09,21,09,25,5.70
2017,09,21,09,26,5.70
2017,09,21,09,27,5.70
2017,09,21,09,28,5.70
2017,09,21,09,29,5.80
2017,09,21,09,30,5.80
2017,09,21,09,31,5.80
2017,09,21,09,32,5.80
2017,09,21,09,33,5.80
2017,09,21,09,34,5.90
2017,09,21,09,35,5.90
2017,09,21,09,36,5.90
2017,09,21,09,37,5.90
2017,09,21,09,38,6.00
2017,09,21,09,39,6.00
2017,09,21,09,40,6.10
2017,09,21,09,41,6.10
2017,09,21,09,42,6.10
2017,09,21,09,43,6.20
2017,09,21,09,44,6.20
2017,09,21,09,45,6.20
2017,09,21,09,46,6.30
2017,09,21,09,47,6.30
2017,09,21,09,48,6.40
2017,09,21,09,49,6.40
2017,09,21,09,50,6.50
2017,09,21,09,51,6.50
2017,09,21,09,52,6.60
2017,09,21,09,53,6.60
2017,09,21,09,54,6.70
2017,09,21,09,55,6.70
2017,09,21,09,56,6.80
2017,09,21,09,57,6.80
2017,09,21,09,58,6.90
2017,09,21,09,59,6.90
2017,09,21,10,00,7.00
2017,09,21,10,01,7.10
2017,09,21,10,02,7.10
2017,09,21,10,03,7.20
2017,09,21,10,04,7.20
2017,09,21,10,05,7.30
2017,09,21,10,06,7.30
2017,09,21,10,07,7.40
2017,09,21,10,08,7.40
2017,09,21,10,09,7.50
2017,09,21,10,10,7.60
2017,09,21,10,11,7.60
2017,09,21,10,12,7.70
2017,09,21,10,13,7.70
2017,09,21,10,14,7.80
2017,09,21,10,15,7.90
2017,09,21,10,16,8.00
2017,09,21,10,17,8.00
2017,09,21,10,18,8.10
2017,09,21,10,19,8.20
2017,09,21,10,20,8.30
2017,09,21,10,21,8.40
2017,09,21,10,22,8.60
2017,09,21,10,23,8.70
2017,09,21,10,24,8.90
2017,09,21,10,25,9.00
2017,09,21,10,26,9.20
2017,09,21,10,27,9.30
2017,09,21,10,28,9.50
2017,09,21,10,29,9.60
2017,09,21,10,30,9.70
2017,09,21,10,31,9.80
2017,09,21,10,32,9.90
2017,09,21,10,33,10.10
2017,09,21,10,34,10.20
2017,09,21,10,35,10.30
2017,09,21,10,36,10.40
2017,09,21,10,37,10.50
2017,09,21,10,38,10.50
2017,09,21,10,39,10.60
2017,09,21,10,40,10.70
2017,09,21,10,41,10.80
2017,09,21,10,42,10.90
2017,09,21,10,43,11.10
2017,09,21,10,44,11.10
2017,09,21,10,45,11.30
2017,09,21,10,46,11.40
2017,09,21,10,47,11.50
2017,09,21,10,48,11.70
2017,09,21,10,49,11.80
2017,09,21,10,50,11.90
2017,09,21,10,51,12.10
2017,09,21,10,52,12.20
2017,09,21,10,53,12.30
2017,09,21,10,54,12.40
2017,09,21,10,55,12.40
2017,09,21,10,56,12.50
2017,09,21,10,57,12.50
2017,09,21,10,58,12.60
2017,09,21,10,59,12.70
2017,09,21,11,00,12.80
2017,09,21,11,01,12.80
2017,09,21,11,02,12.90
2017,09,21,11,03,13.00
2017,09,21,11,04,13.10
2017,09,21,11,05,13.20
2017,09,21,11,06,13.20
2017,09,21,11,07,13.30
2017,09,21,11,08,13.30
2017,09,21,11,09,13.30
2017,09,21,11,10,13.30
2017,09,21,11,11,13.30
2017,09,21,11,12,13.40
2017,09,21,11,13,13.40
2017,09,21,11,14,13.50
2017,09,21,11,15,13.50
2017,09,21,11,16,13.60
2017,09,21,11,17,13.60
2017,09,21,11,18,13.70
2017,09,21,11,19,13.70
2017,09,21,11,20,13.60
2017,09,21,11,21,13.60
2017,09,21,11,22,13.70
2017,09,21,11,23,13.70
2017,09,21,11,24,13.70
2017,09,21,11,25,13.80
2017,09,21,11,26,13.80
2017,09,21,11,27,13.90
2017,09,21,11,28,13.90
2017,09,21,11,29,13.90
2017,09,21,11,30,13.80
2017,09,21,11,31,13.80
2017,09,21,11,32,13.80
2017,09,21,11,33,13.90
2017,09,21,11,34,13.90
2017,09,21,11,35,14.00
2017,09,21,11,36,14.00
2017,09,21,11,37,14.10
2017,09,21,11,38,14.20
2017,09,21,11,39,14.30
2017,09,21,11,40,14.30
2017,09,21,11,41,14.40
2017,09,21,11,42,14.40
2017,09,21,11,43,14.40
2017,09,21,11,44,14.50
2017,09,21,11,45,14.50
2017,09,21,11,46,14.60
2017,09,21,11,47,14.60
2017,09,21,11,48,14.70
2017,09,21,11,49,14.70
2017,09,21,11,50,14.80
2017,09,21,11,51,14.80
2017,09,21,11,52,14.90
2017,09,21,11,53,15.00
2017,09,21,11,54,15.10
2017,09,21,11,55,15.10
2017,09,21,11,56,15.10
2017,09,21,11,57,15.10
2017,09,21,11,58,15.10
2017,09,21,11,59,15.10
2017,09,21,12,00,15.10
2017,09,21,12,01,15.10
2017,09,21,12,02,15.10
2017,09,21,12,03,15.20
2017,09,21,12,04,15.30
2017,09,21,12,05,15.30
2017,09,21,12,06,15.40
2017,09,21,12,07,15.50
2017,09,21,12,08,15.50
2017,09,21,12,09,15.60
2017,09,21,12,10,15.60
2017,09,21,12,11,15.60
2017,09,21,12,12,15.70
2017,09,21,12,13,15.70
2017,09,21,12,14,15.70
2017,09,21,12,15,15.70
2017,09,21,12,16,15.80
2017,09,21,12,17,15.80
2017,09,21,12,18,15.80
2017,09,21,12,19,15.80
2017,09,21,12,20,15.80
2017,09,21,12,21,15.90
2017,09,21,12,22,15.90
2017,09,21,12,23,15.90
2017,09,21,12,24,16.00
2017,09,21,12,25,16.00
2017,09,21,12,26,16.00
2017,09,21,12,27,16.10
2017,09,21,12,28,16.10
2017,09,21,12,29,16.20
2017,09,21,12,30,16.20
2017,09,21,12,31,16.20
2017,09,21,12,32,16.20
2017,09,21,12,33,16.20
2017,09,21,12,34,16.20
2017,09,21,12,35,16.30
2017,09,21,12,36,16.30
2017,09,21,12,37,16.30
2017,09,21,12,38,16.30
2017,09,21,12,39,16.30
2017,09,21,12,40,16.30
2017,09,21,12,41,16.20
2017,09,21,12,42,16.30
2017,09,21,12,43,16.30
2017,09,21,12,44,16.30
2017,09,21,12,45,16.30
2017,09,21,12,46,16.30
2017,09,21,12,47,16.40
2017,09,21,12,48,16.40
2017,09,21,12,49,16.50
2017,09,21,12,50,16.50
2017,09,21,12,51,16.60
2017,09,21,12,52,16.60
2017,09,21,12,53,16.60
2017,09,21,12,54,16.60
2017,09,21,12,55,16.60
2017,09,21,12,56,16.60
2017,09,21,12,57,16.60
2017,09,21,12,58,16.60
2017,09,21,12,59,16.70
2017,09,21,13,00,16.70
2017,09,21,13,01,16.70
2017,09,21,13,02,16.80
2017,09,21,13,03,16.90
2017,09,21,13,04,17.00
2017,09,21,13,05,17.00
2017,09,21,13,06,17.10
2017,09,21,13,07,17.10
2017,09,21,13,08,17.20
2017,09,21,13,09,17.20
2017,09,21,13,10,17.30
2017,09,21,13,11,17.30
2017,09,21,13,12,17.30
2017,09,21,13,13,17.30
2017,09,21,13,14,17.40
2017,09,21,13,15,17.50
2017,09,21,13,16,17.60
2017,09,21,13,17,17.60
2017,09,21,13,18,17.60
2017,09,21,13,19,17.70
2017,09,21,13,20,17.70
2017,09,21,13,21,17.80
2017,09,21,13,22,17.80
2017,09,21,13,23,17.80
2017,09,21,13,24,17.80
2017,09,21,13,25,17.80
2017,09,21,13,26,17.90
2017,09,21,13,27,17.90
2017,09,21,13,28,17.80
2017,09,21,13,29,17.80
2017,09,21,13,30,17.80
2017,09,21,13,31,17.80
2017,09,21,13,32,17.80
2017,09,21,13,33,17.80
2017,09,21,13,34,17.80
2017,09,21,13,35,17.90
2017,09,21,13,36,17.90
2017,09,21,13,37,17.90
2017,09,21,13,38,17.90
2017,09,21,13,39,17.90
2017,09,21,13,40,17.90
2017,09,21,13,41,17.90
2017,09,21,13,42,17.90
2017,09,21,13,43,17.90
2017,09,21,13,44,17.90
2017,09,21,13,45,17.90
2017,09,21,13,46,17.90
2017,09,21,13,47,17.90
2017,09,21,13,48,17.90
2017,09,21,13,49,17.90
2017,09,21,13,50,17.90
2017,09,21,13,51,17.80
2017,09,21,13,52,17.80
2017,09,21,13,53,17.80
2017,09,21,13,54,17.80
2017,09,21,13,55,17.80
2017,09,21,13,56,17.80
2017,09,21,13,57,17.90
2017,09,21,13,58,17.90
2017,09,21,13,59,18.00
2017,09,21,14,00,18.00
2017,09,21,14,01,18.10
2017,09,21,14,02,18.20
2017,09,21,14,03,18.30
2017,09,21,14,04,18.30
2017,09,21,14,05,18.30
2017,09,21,14,06,18.40
2017,09,21,14,07,18.40
2017,09,21,14,08,18.40
2017,09,21,14,09,18.40
2017,09,21,14,10,18.50
2017,09,21,14,11,18.50
2017,09,21,14,12,18.60
2017,09,21,14,13,18.60
2017,09,21,14,14,18.70
2017,09,21,14,15,18.70
2017,09,21,14,16,18.80
2017,09,21,14,17,18.90
2017,09,21,14,18,18.90
2017,09,21,14,19,19.00
2017,09,21,14,20,19.00
2017,09,21,14,21,19.10
2017,09,21,14,22,19.20
2017,09,21,14,23,19.20
2017,09,21,14,24,19.30
2017,09,21,14,25,19.30
2017,09,21,14,26,19.40
2017,09,21,14,27,19.40
2017,09,21,14,28,19.50
2017,09,21,14,29,19.50
2017,09,21,14,30,19.50
2017,09,21,14,31,19.50
2017,09,21,14,32,19.50
2017,09,21,14,33,19.40
2017,09,21,14,34,19.40
2017,09,21,14,35,19.40
2017,09,21,14,36,19.40
2017,09,21,14,37,19.40
2017,09,21,14,38,19.40
2017,09,21,14,39,19.50
2017,09,21,14,40,19.60
2017,09,21,14,41,19.60
2017,09,21,14,42,19.60
2017,09,21,14,43,19.70
2017,09,21,14,44,19.70
2017,09,21,14,45,19.70
2017,09,21,14,46,19.70
2017,09,21,14,47,19.70
2017,09,21,14,48,19.70
2017,09,21,14,49,19.70
2017,09,21,14,50,19.70
2017,09,21,14,51,19.80
2017,09,21,14,52,19.80
2017,09,21,14,53,19.80
2017,09,21,14,54,19.80
2017,09,21,14,55,19.90
2017,09,21,14,56,19.90
2017,09,21,14,57,19.90
2017,09,21,14,58,19.90
2017,09,21,14,59,19.90
2017,09,21,15,00,19.90
2017,09,21,15,01,19.80
2017,09,21,15,02,19.80
2017,09,21,15,03,19.80
2017,09,21,15,04,19.90
2017,09,21,15,05,19.90
2017,09,21,15,06,19.90
2017,09,21,15,07,19.90
2017,09,21,15,08,19.90
2017,09,21,15,09,19.80
2017,09,21,15,10,19.80
2017,09,21,15,11,19.80
2017,09,21,15,12,19.90
2017,09,21,15,13,19.90
2017,09,21,15,14,20.00
2017,09,21,15,15,20.00
2017,09,21,15,16,20.00
2017,09,21,15,17,20.00
2017,09,21,15,18,20.00
2017,09,21,15,19,20.00
2017,09,21,15,20,20.00
2017,09,21,15,21,20.00
2017,09,21,15,22,20.10
2017,09,21,15,23,20.10
2017,09,21,15,24,20.10
2017,09,21,15,25,20.10
2017,09,21,15,26,20.20
2017,09,21,15,27,20.20
2017,09,21,15,28,20.20
2017,09,21,15,29,20.20
2017,09,21,15,30,20.20
2017,09,21,15,31,20.20
2017,09,21,15,32,20.20
2017,09,21,15,33,20.20
2017,09,21,15,34,20.20
2017,09,21,15,35,20.20
2017,09,21,15,36,20.20
2017,09,21,15,37,20.30
2017,09,21,15,38,20.20
2017,09,21,15,39,20.20
2017,09,21,15,40,20.20
2017,09,21,15,41,20.20
2017,09,21,15,42,20.20
2017,09,21,15,43,20.20
2017,09,21,15,44,20.20
2017,09,21,15,45,20.20
2017,09,21,15,46,20.20
2017,09,21,15,47,20.30
2017,09,21,15,48,20.30
2017,09,21,15,49,20.30
2017,09,21,15,50,20.30
2017,09,21,15,51,20.30
2017,09,21,15,52,20.30
2017,09,21,15,53,20.30
2017,09,21,15,54,20.30
2017,09,21,15,55,20.30
2017,09,21,15,56,20.30
2017,09,21,15,57,20.30
2017,09,21,15,58,20.30
2017,09,21,15,59,20.30
2017,09,21,16,00,20.30
2017,09,21,16,01,20.30
2017,09,21,16,02,20.30
2017,09,21,16,03,20.30
2017,09,21,16,04,20.40
2017,09,21,16,05,20.40
2017,09,21,16,06,20.40
2017,09,21,16,07,20.40
2017,09,21,16,08,20.40
2017,09,21,16,09,20.40
2017,09,21,16,10,20.40
2017,09,21,16,11,20.50
2017,09,21,16,12,20.60
2017,09,21,16,13,20.60
2017,09,21,16,14,20.60
2017,09,21,16,15,20.60
2017,09,21,16,16,20.60
2017,09,21,16,17,20.70
2017,09,21,16,18,20.70
2017,09,21,16,19,20.70
2017,09,21,16,20,20.80
2017,09,21,16,21,20.80
2017,09,21,16,22,20.80
2017,09,21,16,23,20.80
2017,09,21,16,24,20.80
2017,09,21,16,25,20.80
2017,09,21,16,26,20.80
2017,09,21,16,27,20.80
2017,09,21,16,28,20.80
2017,09,21,16,29,20.90
2017,09,21,16,30,20.80
2017,09,21,16,31,20.80
2017,09,21,16,32,20.80
2017,09,21,16,33,20.80
2017,09,21,16,34,20.80
2017,09,21,16,35,20.80
2017,09,21,16,36,20.80
2017,09,21,16,37,20.80
2017,09,21,16,38,20.80
2017,09,21,16,39,20.80
2017,09,21,16,40,20.80
2017,09,21,16,41,20.80
2017,09,21,16,42,20.80
2017,09,21,16,43,20.90
2017,09,21,16,44,20.90
2017,09,21,16,45,20.90
2017,09,21,16,46,20.90
2017,09,21,16,47,20.90
2017,09,21,16,48,20.90
2017,09,21,16,49,20.90
2017,09,21,16,50,20.90
2017,09,21,16,51,20.90
2017,09,21,16,52,20.90
2017,09,21,16,53,20.80
2017,09,21,16,54,20.90
2017,09,21,16,55,20.90
2017,09,21,16,56,20.80
2017,09,21,16,57,20.80
2017,09,21,16,58,20.80
2017,09,21,16,59,20.80
2017,09,21,17,00,20.70
2017,09,21,17,01,20.70
2017,09,21,17,02,20.70
2017,09,21,17,03,20.80
2017,09,21,17,04,20.80
2017,09,21,17,05,20.80
2017,09,21,17,06,20.80
2017,09,21,17,07,20.90
2017,09,21,17,08,20.90
2017,09,21,17,09,20.90
2017,09,21,17,10,20.90
2017,09,21,17,11,21.00
2017,09,21,17,12,21.00
2017,09,21,17,13,21.10
2017,09,21,17,14,21.10
2017,09,21,17,15,21.10
2017,09,21,17,16,21.10
2017,09,21,17,17,21.10
2017,09,21,17,18,21.10
2017,09,21,17,19,21.10
2017,09,21,17,20,21.10
2017,09,21,17,21,21.00
2017,09,21,17,22,21.00
2017,09,21,17,23,20.90
2017,09,21,17,24,20.90
2017,09,21,17,25,20.90
2017,09,21,17,26,21.00
2017,09,21,17,27,21.00
2017,09,21,17,28,21.00
2017,09,21,17,29,21.00
2017,09,21,17,30,21.00
2017,09,21,17,31,20.90
2017,09,21,17,32,20.80
2017,09,21,17,33,20.80
2017,09,21,17,34,20.80
2017,09,21,17,35,20.80
2017,09,21,17,36,20.80
2017,09,21,17,37,20.80
2017,09,21,17,38,20.80
2017,09,21,17,39,20.80
2017,09,21,17,40,20.80
2017,09,21,17,41,20.80
2017,09,21,17,42,20.70
2017,09,21,17,43,20.70
2017,09,21,17,44,20.70
2017,09,21,17,45,20.70
2017,09,21,17,46,20.70